When you browse on this site, cookies collect data to enhance your experience and personalize the content and advertising you see.
Visit our Privacy Policy to learn more. By continuing to use the site, you agree to this use of cookies and data.
  • In Lithuania
  • List of Countries
  • For 7 days
  • Water Temperature
  • Weather Map
  • Weather Widgets
  • user-avatar
    Login

    Hourly Weather Safaga

    Today, 6 June, Saturday

    Time Temperature Precipitation Wind Pressure Humidity
    00:00 +26°C° 0 mm 1 mps 702 mmHg 29%
    01:00 +25°C° 0 mm 1 mps 702 mmHg 30%
    02:00 +24°C° 0 mm 1 mps 702 mmHg 32%
    03:00 +24°C° 0 mm 1 mps 702 mmHg 34%
    04:00 +23°C° 0 mm 1 mps 702 mmHg 35%
    05:00 +22°C° 0 mm 1 mps 702 mmHg 37%
    06:00 +26°C° 0 mm 1 mps 702 mmHg 31%
    07:00 +29°C° 0 mm 1 mps 703 mmHg 25%
    08:00 +32°C° 0 mm 1 mps 704 mmHg 19%
    09:00 +35°C° 0 mm 2 mps 704 mmHg 16%
    10:00 +36°C° 0 mm 3 mps 704 mmHg 13%
    11:00 +38°C° 0 mm 4 mps 705 mmHg 10%
    12:00 +40°C° 0 mm 4 mps 704 mmHg 10%
    13:00 +40°C° 0 mm 4 mps 703 mmHg 9%
    14:00 +41°C° 0 mm 4 mps 703 mmHg 8%
    15:00 +40°C° 0 mm 4 mps 703 mmHg 9%
    16:00 +39°C° 0 mm 3 mps 702 mmHg 10%
    17:00 +38°C° 0 mm 2 mps 702 mmHg 10%
    18:00 +35°C° 0 mm 2 mps 702 mmHg 15%
    19:00 +31°C° 0 mm 2 mps 701 mmHg 21%
    20:00 +28°C° 0 mm 2 mps 701 mmHg 26%
    21:00 +27°C° 0 mm 1 mps 701 mmHg 26%
    22:00 +27°C° 0 mm 1 mps 701 mmHg 27%
    23:00 +26°C° 0 mm 1 mps 701 mmHg 27%

    Tomorrow, 7 June, Sunday

    Time Temperature Precipitation Wind Pressure Humidity
    00:00 +26°C° 0 mm 1 mps 701 mmHg 27%
    01:00 +25°C° 0 mm 1 mps 700 mmHg 28%
    02:00 +25°C° 0 mm 1 mps 700 mmHg 29%
    03:00 +24°C° 0 mm 1 mps 700 mmHg 29%
    04:00 +23°C° 0 mm 1 mps 700 mmHg 30%
    05:00 +21°C° 0 mm 0 mps 700 mmHg 30%
    06:00 +24°C° 0 mm 0 mps 701 mmHg 25%
    07:00 +28°C° 0 mm 0 mps 702 mmHg 20%
    08:00 +32°C° 0 mm 0 mps 703 mmHg 14%
    09:00 +35°C° 0 mm 1 mps 703 mmHg 12%
    10:00 +37°C° 0 mm 1 mps 703 mmHg 9%
    11:00 +40°C° 0 mm 2 mps 703 mmHg 7%
    12:00 +40°C° 0 mm 3 mps 703 mmHg 7%
    13:00 +42°C° 0 mm 4 mps 702 mmHg 7%
    14:00 +42°C° 0 mm 4 mps 702 mmHg 8%
    15:00 +41°C° 0 mm 4 mps 701 mmHg 9%
    16:00 +41°C° 0 mm 4 mps 701 mmHg 10%
    17:00 +40°C° 0 mm 4 mps 700 mmHg 11%
    18:00 +36°C° 0 mm 3 mps 700 mmHg 13%
    19:00 +32°C° 0 mm 2 mps 700 mmHg 15%
    20:00 +30°C° 0 mm 2 mps 700 mmHg 17%
    21:00 +29°C° 0 mm 1 mps 700 mmHg 17%
    22:00 +28°C° 0 mm 1 mps 700 mmHg 17%
    23:00 +28°C° 0 mm 1 mps 700 mmHg 17%

    Day after tomorrow, 8 June, Monday

    Time Temperature Precipitation Wind Pressure Humidity
    00:00 +28°C° 0 mm 1 mps 700 mmHg 18%
    01:00 +27°C° 0 mm 1 mps 700 mmHg 18%
    02:00 +27°C° 0 mm 1 mps 699 mmHg 18%
    03:00 +27°C° 0 mm 1 mps 699 mmHg 18%
    04:00 +26°C° 0 mm 1 mps 699 mmHg 18%
    05:00 +26°C° 0 mm 1 mps 699 mmHg 19%
    06:00 +29°C° 0 mm 2 mps 700 mmHg 16%
    07:00 +33°C° 0 mm 3 mps 701 mmHg 13%
    08:00 +36°C° 0 mm 4 mps 702 mmHg 10%
    09:00 +38°C° 0 mm 3 mps 702 mmHg 10%
    10:00 +39°C° 0 mm 3 mps 702 mmHg 9%
    11:00 +40°C° 0 mm 3 mps 702 mmHg 9%
    12:00 +42°C° 0 mm 3 mps 702 mmHg 8%
    13:00 +42°C° 0 mm 4 mps 701 mmHg 8%
    14:00 +43°C° 0 mm 5 mps 701 mmHg 8%
    15:00 +42°C° 0 mm 4 mps 701 mmHg 8%
    16:00 +42°C° 0 mm 4 mps 700 mmHg 8%
    17:00 +41°C° 0 mm 4 mps 700 mmHg 8%
    18:00 +37°C° 0 mm 3 mps 700 mmHg 11%
    19:00 +34°C° 0 mm 2 mps 700 mmHg 14%
    20:00 +30°C° 0 mm 2 mps 700 mmHg 17%
    21:00 +30°C° 0 mm 1 mps 700 mmHg 17%
    22:00 +29°C° 0 mm 1 mps 700 mmHg 17%
    23:00 +28°C° 0 mm 1 mps 700 mmHg 18%

    9 June, Tuesday

    Time Temperature Precipitation Wind Pressure Humidity
    00:00 +28°C° 0 mm 1 mps 700 mmHg 19%
    01:00 +27°C° 0 mm 1 mps 699 mmHg 19%
    02:00 +26°C° 0 mm 1 mps 699 mmHg 20%
    03:00 +26°C° 0 mm 1 mps 699 mmHg 21%
    04:00 +23°C° 0 mm 0 mps 700 mmHg 21%
    05:00 +23°C° 0 mm 0 mps 700 mmHg 22%
    06:00 +28°C° 0 mm 1 mps 701 mmHg 19%
    07:00 +31°C° 0 mm 1 mps 701 mmHg 16%
    08:00 +35°C° 0 mm 2 mps 702 mmHg 13%
    09:00 +37°C° 0 mm 3 mps 702 mmHg 12%
    10:00 +38°C° 0 mm 3 mps 703 mmHg 11%
    11:00 +41°C° 0 mm 4 mps 703 mmHg 9%
    12:00 +42°C° 0 mm 5 mps 702 mmHg 9%
    13:00 +42°C° 0 mm 5 mps 702 mmHg 9%
    14:00 +44°C° 0 mm 6 mps 702 mmHg 9%
    15:00 +42°C° 0 mm 6 mps 702 mmHg 9%
    16:00 +42°C° 0 mm 6 mps 702 mmHg 9%
    17:00 +41°C° 0 mm 7 mps 701 mmHg 10%
    18:00 +37°C° 0 mm 5 mps 701 mmHg 12%
    19:00 +34°C° 0 mm 4 mps 701 mmHg 14%
    20:00 +30°C° 0 mm 2 mps 701 mmHg 17%
    21:00 +29°C° 0 mm 2 mps 701 mmHg 19%
    22:00 +28°C° 0 mm 2 mps 701 mmHg 21%
    23:00 +27°C° 0 mm 1 mps 701 mmHg 24%

    10 June, Wednesday

    Time Temperature Precipitation Wind Pressure Humidity
    00:00 +26°C° 0 mm 1 mps 700 mmHg 26%
    01:00 +25°C° 0 mm 1 mps 700 mmHg 27%
    02:00 +25°C° 0 mm 1 mps 700 mmHg 29%
    03:00 +22°C° 0 mm 0 mps 700 mmHg 30%
    04:00 +21°C° 0 mm 0 mps 700 mmHg 32%
    05:00 +21°C° 0 mm 0 mps 700 mmHg 33%
    06:00 +24°C° 0 mm 0 mps 701 mmHg 27%
    07:00 +29°C° 0 mm 1 mps 702 mmHg 22%
    08:00 +33°C° 0 mm 1 mps 703 mmHg 16%
    09:00 +35°C° 0 mm 2 mps 703 mmHg 14%
    10:00 +37°C° 0 mm 2 mps 703 mmHg 12%
    11:00 +39°C° 0 mm 3 mps 703 mmHg 10%
    12:00 +40°C° 0 mm 3 mps 703 mmHg 9%
    13:00 +41°C° 0 mm 4 mps 702 mmHg 8%
    14:00 +42°C° 0 mm 4 mps 702 mmHg 8%
    15:00 +41°C° 0 mm 4 mps 702 mmHg 8%
    16:00 +40°C° 0 mm 4 mps 701 mmHg 8%
    17:00 +40°C° 0 mm 4 mps 701 mmHg 9%
    18:00 +36°C° 0 mm 3 mps 701 mmHg 11%
    19:00 +33°C° 0 mm 3 mps 701 mmHg 13%
    20:00 +29°C° 0 mm 2 mps 701 mmHg 15%
    21:00 +28°C° 0 mm 2 mps 701 mmHg 16%
    22:00 +27°C° 0 mm 2 mps 701 mmHg 16%
    23:00 +26°C° 0 mm 1 mps 701 mmHg 16%

    11 June, Thursday

    Time Temperature Precipitation Wind Pressure Humidity
    00:00 +26°C° 0 mm 1 mps 700 mmHg 17%
    01:00 +25°C° 0 mm 1 mps 700 mmHg 18%
    02:00 +25°C° 0 mm 1 mps 700 mmHg 19%
    03:00 +24°C° 0 mm 1 mps 700 mmHg 20%
    04:00 +23°C° 0 mm 1 mps 700 mmHg 21%
    05:00 +22°C° 0 mm 1 mps 700 mmHg 23%
    06:00 +26°C° 0 mm 2 mps 700 mmHg 19%
    07:00 +29°C° 0 mm 3 mps 701 mmHg 14%
    08:00 +34°C° 0 mm 4 mps 702 mmHg 10%
    09:00 +36°C° 0 mm 4 mps 702 mmHg 9%
    10:00 +37°C° 0 mm 4 mps 702 mmHg 8%
    11:00 +40°C° 0 mm 4 mps 702 mmHg 7%
    12:00 +41°C° 0 mm 5 mps 702 mmHg 6%
    13:00 +42°C° 0 mm 6 mps 702 mmHg 6%
    14:00 +44°C° 0 mm 7 mps 702 mmHg 6%
    15:00 +43°C° 0 mm 7 mps 701 mmHg 6%
    16:00 +41°C° 0 mm 7 mps 701 mmHg 6%
    17:00 +40°C° 0 mm 7 mps 700 mmHg 7%
    18:00 +38°C° 0 mm 6 mps 700 mmHg 9%
    19:00 +34°C° 0 mm 5 mps 700 mmHg 11%
    20:00 +32°C° 0 mm 4 mps 700 mmHg 14%
    21:00 +32°C° 0 mm 4 mps 700 mmHg 15%
    22:00 +30°C° 0 mm 4 mps 700 mmHg 16%
    23:00 +30°C° 0 mm 5 mps 700 mmHg 17%
    Show more